Location: Newark
(25.6108°S, 54.5803°W)
Time: 20:56:55
(UTC+00:00)

Courier 1B - Pass Details

Date: 05 November 2020
Orbit: 962 x 1209 km, 28.3° (Epoch: 24 November)

Event Time Altitude Azimuth Distance (km) Brightness Sun altitude
Rises 01:29:36 0° 265° (W) 3,869 11.1 -40.4°
Reaches altitude 10° 01:32:17 10° 262° (W) 2,949 10.4 -40.8°
Enters shadow 01:35:48 31° 255° (WSW) 1,840 9.1 -41.2°
Maximum altitude 01:39:36 72° 178° (S) 1,200 - -41.7°
Drops below altitude 10° 01:47:21 10° 93° (E) 3,113 - -42.6°
Sets 01:50:15 0° 91° (E) 4,095 - -43.0°
